User: anonymous   Login
Location: Key Biscayne
(25.6930°N, 80.1630°W)
Time: 07:36:36
(UTC-04:00)
Language:

CZ-2D R/B - Orbit

View from above orbital plane
View from above orbital plane
View from above satellite
View from above satellite

Ground track
Ground track

The orbit data is extracted from the following two-line orbital elements,

1 28738U 05024B   18111.07005018  .00000345  00000-0  24068-4 0  9998
2 28738  97.4602 146.2928 0012869  31.7229 328.4775 15.11506438702313
Epoch (UTC): 21 April 2018 01:40:52
Eccentricity: 0.0012869
inclination: 97.4602°
perigee height: 523 km
apogee height: 540 km
right ascension of ascending node: 146.2928°
argument of perigee: 31.7229°
revolutions per day: 15.11506438
mean anomaly at epoch: 328.4775°
orbit number at epoch: 70231

The dashed part of the orbit path shows where the satellite is in the earth's shadow,  

DLR